Date,TemperatureHighF,TemperatureAvgF,TemperatureLowF,DewpointHighF,DewpointAvgF,DewpointLowF,HumidityHigh,HumidityAvg,HumidityLow,PressureMaxIn,PressureMinIn,WindSpeedMaxMPH,WindSpeedAvgMPH,GustSpeedMaxMPH,PrecipitationSumIn
2013-4-1,28,28,28,15,15,15,59,59,59,29.68,29.65,8,8,8,0.01
2013-4-2,40,30,18,22,16,10,76,57,38,29.93,29.84,9,4,9,0.00
2013-4-3,52,36,19,27,16,11,76,48,24,30.01,29.83,4,1,4,0.00
2013-4-4,58,46,32,38,31,17,71,56,42,29.82,29.63,8,4,11,0.00
2013-4-5,54,41,30,28,24,20,71,52,28,29.82,29.53,14,4,14,0.00
2013-4-6,64,46,37,47,35,23,85,65,42,29.53,29.13,15,5,15,0.12
2013-4-7,64,45,35,41,34,29,81,68,41,29.92,29.36,11,4,11,0.00
2013-4-8,69,52,45,52,43,38,80,71,54,29.97,29.71,13,4,13,0.21
2013-4-9,45,42,40,38,36,35,84,79,78,29.97,29.90,17,10,17,0.05
2013-4-10,38,34,32,34,29,26,88,81,78,30.12,29.85,17,9,17,0.31
2013-4-11,41,37,34,37,32,29,87,83,80,29.83,29.60,14,5,14,0.32
2013-4-12,36,34,31,32,26,23,84,74,65,29.91,29.61,11,4,11,0.02
2013-4-13,38,36,30,25,23,21,75,58,54,30.00,29.91,11,6,11,0.00
2013-4-14,55,40,32,51,33,23,88,76,63,29.97,29.52,13,5,13,1.37
2013-4-15,48,48,48,43,43,43,85,85,85,29.73,29.69,0,0,0,1.37
2013-4-16,55,41,28,32,28,21,80,61,39,30.32,30.07,10,4,10,0.00
2013-4-17,41,40,37,36,33,28,89,76,62,30.31,29.75,13,8,13,0.59
2013-4-18,41,37,32,37,33,27,88,84,79,29.80,29.49,10,6,10,0.30
2013-4-19,35,33,30,26,24,22,79,70,59,30.04,29.56,14,6,14,0.01
2013-4-20,55,38,25,24,18,10,76,49,22,30.34,30.05,6,2,6,0.00
2013-4-21,38,38,38,25,24,23,60,58,55,30.34,30.32,4,2,6,0.00
2013-4-22,61,52,46,46,44,42,87,74,53,30.22,29.96,8,2,8,0.17
2013-4-23,39,35,33,28,27,26,76,71,63,30.12,30.06,11,9,11,0.20
2013-4-24,56,50,36,33,29,25,73,45,31,30.09,29.99,21,10,21,0.04
2013-4-25,36,32,29,29,24,20,74,71,62,30.25,30.09,16,5,16,0.00
2013-4-26,76,64,39,48,45,30,82,52,32,30.24,30.12,13,3,13,0.00
2013-4-27,78,60,44,50,46,41,94,64,33,30.25,30.04,8,2,8,0.00
2013-4-28,84,63,41,50,45,39,95,59,26,30.05,29.81,8,1,8,0.00
2013-4-29,58,55,52,51,49,47,89,78,69,29.89,29.84,4,1,4,0.08
2013-4-30,83,70,52,59,54,43,87,60,36,30.01,29.62,14,5,14,0.06